This is the latest recevied weather packets stored in our database for station/object N9EA. If no packets are shown the sender has not sent any weather packets the latest 10 day(s).
| Time | Temp. | Humidity | Pressure | Rain* | Wind** | Luminosity | Snow |
|---|---|---|---|---|---|---|---|
| 1777600894 | 10.56° C | 66% | 1014 hPa | 0 mm | - | 0 W/m² | - |
| 1777600589 | 10.56° C | 66% | 1013.7 hPa | 0 mm | - | 0 W/m² | - |
| 1777600285 | 10.56° C | 65% | 1013.7 hPa | 0 mm | - | 0 W/m² | - |
| 1777599981 | 10.56° C | 64% | 1013.8 hPa | 0 mm | - | 0 W/m² | - |
| 1777599677 | 10.56° C | 64% | 1013.9 hPa | 0 mm | - | 0 W/m² | - |
| 1777599374 | 10.56° C | 64% | 1013.7 hPa | 0 mm | - | 0 W/m² | - |
| 1777599071 | 10.56° C | 64% | 1013.9 hPa | 0 mm | - | 0 W/m² | - |
| 1777598769 | 10.56° C | 65% | 1013.9 hPa | 0 mm | - | 0 W/m² | - |
| 1777598464 | 10.56° C | 65% | 1013.8 hPa | 0 mm | - | 0 W/m² | - |
| 1777598162 | 10.56° C | 65% | 1013.7 hPa | 0 mm | - | 0 W/m² | - |
| 1777597857 | 10.56° C | 65% | 1013.6 hPa | 0 mm | - | 0 W/m² | - |
| 1777597551 | 11.11° C | 65% | 1013.6 hPa | 0 mm | - | 1 W/m² | - |
| 1777597247 | 11.11° C | 65% | 1013.6 hPa | 0 mm | - | 1 W/m² | - |
| 1777596942 | 11.11° C | 65% | 1013.6 hPa | 0 mm | - | 2 W/m² | - |
| 1777596639 | 11.11° C | 65% | 1013.7 hPa | 0 mm | - | 3 W/m² | - |
| 1777596336 | 11.11° C | 64% | 1013.6 hPa | 0 mm | - | 5 W/m² | - |
| 1777596034 | 11.11° C | 64% | 1013.4 hPa | 0 mm | - | 8 W/m² | - |
| 1777595733 | 11.11° C | 64% | 1013.5 hPa | 0 mm | - | 7 W/m² | - |
| 1777595429 | 11.11° C | 64% | 1013.6 hPa | 0 mm | - | 5 W/m² | - |
| 1777595126 | 11.11° C | 64% | 1013.5 hPa | 0 mm | - | 11 W/m² | - |
| 1777594822 | 11.11° C | 64% | 1013.4 hPa | 0 mm | - | 9 W/m² | - |
| 1777594518 | 11.11° C | 65% | 1013.4 hPa | 0 mm | - | 14 W/m² | - |
| 1777594215 | 11.11° C | 65% | 1013.5 hPa | 0 mm | - | 18 W/m² | - |
| 1777593911 | 11.11° C | 65% | 1013.5 hPa | 0 mm | - | 23 W/m² | - |
| 1777593608 | 11.11° C | 66% | 1013.2 hPa | 0 mm | - | 31 W/m² | - |
* Rain latest hour (hover to see other rain measurements)
** Current wind speed in m/s (hover to see current wind gust speed)